This is the latest recevied weather packets stored in our database for station/object SQ9NFI-4. If no packets are shown the sender has not sent any weather packets the latest 10 day(s).
| Time | Temp. | Humidity | Pressure | Rain* | Wind** | Luminosity | Snow |
|---|---|---|---|---|---|---|---|
| 1777747816 | 11.67° C | 69% | 1021 hPa | 0 mm | - | 0 W/m² | - |
| 1777747516 | 12.22° C | 68% | 1021 hPa | 0 mm | - | 0 W/m² | - |
| 1777747216 | 12.78° C | 66% | 1021 hPa | 0 mm | - | 0 W/m² | - |
| 1777746916 | 12.78° C | 63% | 1021 hPa | 0 mm | - | 0 W/m² | - |
| 1777746616 | 13.33° C | 62% | 1021 hPa | 0 mm | - | 0 W/m² | - |
| 1777746316 | 13.89° C | 67% | 1021 hPa | 0 mm | - | 0 W/m² | - |
| 1777746016 | 14.44° C | 65% | 1021 hPa | 0 mm | - | 1 W/m² | - |
| 1777745716 | 14.44° C | 58% | 1021 hPa | 0 mm | - | 1 W/m² | - |
| 1777745416 | 15.56° C | 57% | 1021 hPa | 0 mm | - | 2 W/m² | - |
| 1777745116 | 15.56° C | 54% | 1021 hPa | 0 mm | - | 4 W/m² | - |
| 1777744816 | 16.67° C | 52% | 1021 hPa | 0 mm | - | 5 W/m² | - |
| 1777744516 | 17.22° C | 48% | 1021 hPa | 0 mm | - | 7 W/m² | - |
| 1777744216 | 18.33° C | 46% | 1021.7 hPa | 0 mm | - | 9 W/m² | - |
| 1777743916 | 19.44° C | 42% | 1021.7 hPa | 0 mm | - | 12 W/m² | - |
| 1777743616 | 19.44° C | 40% | 1021.7 hPa | 0 mm | - | 14 W/m² | - |
| 1777743316 | 20.56° C | 38% | 1021 hPa | 0 mm | - | 16 W/m² | - |
| 1777743016 | 20.56° C | 37% | 1021 hPa | 0 mm | - | 19 W/m² | - |
| 1777742716 | 20.56° C | 38% | 1021 hPa | 0 mm | - | 22 W/m² | - |
| 1777742416 | 21.11° C | 35% | 1021 hPa | 0 mm | - | 25 W/m² | - |
| 1777742116 | 21.11° C | 34% | 1021 hPa | 0 mm | - | 28 W/m² | - |
| 1777741816 | 21.67° C | 34% | 1021.7 hPa | 0 mm | - | 32 W/m² | - |
| 1777741516 | 21.67° C | 34% | 1021.7 hPa | 0 mm | - | 35 W/m² | - |
| 1777741216 | 21.67° C | 33% | 1021.7 hPa | 0 mm | - | 40 W/m² | - |
| 1777740916 | 21.67° C | 33% | 1021.7 hPa | 0 mm | - | 45 W/m² | - |
| 1777740616 | 22.22° C | 31% | 1021.7 hPa | 0 mm | - | 50 W/m² | - |
* Rain latest hour (hover to see other rain measurements)
** Current wind speed in m/s (hover to see current wind gust speed)